Weather History for St. George, UT

Change the Weather History Date:

Thursday, January 17, 2013

  Actual Average Record
Temperature  
Mean Temperature 37 °F -  
Max Temperature 51 °F 54 °F 69 °F (1976)
Min Temperature 23 °F 30 °F 10 °F (1937)
Degree Days  
Heating Degree Days 28    
Moisture  
Dew Point 14 °F    
Average Humidity 40    
Maximum Humidity 59    
Minimum Humidity 24    
Precipitation  
Precipitation 0.00 in - - ()
Sea Level Pressure  
Sea Level Pressure 30.47 in    
Wind  
Wind Speed 4 mph (ESE)    
Max Wind Speed 12 mph    
Max Gust Speed -    
Visibility 10 miles    
Events      
Averages and records for this station are not official NWS values.
T = Trace of Precipitation, MM = Missing Value Source: NWS Daily Summary

Daily Weather History Graph

Daily Weather History Graph

Search for Another Location

Airport:

Trip Planner

Search our weather history database for the weather conditions in past years. The results will help you decide how hot, cold, wet, or windy it might be!

Date:

Astronomy

Jan. 17, 2013 Rise Set
Actual Time 7:46 AM MST 5:43 PM MST
Civil Twilight 7:17 AM MST 6:11 PM MST
Nautical Twilight 6:45 AM MST 6:43 PM MST
Astronomical Twilight 6:14 AM MST 7:14 PM MST
Moon 11:05 AM MST (1/17) No Moon Set
Length of Visible Light 10h 53m
Length of Day
9h 57m
Waxing Crescent, 38% of the Moon is Illuminated
Jan 17
Waxing Crescent
Jan 18
First Quarter
Jan 26
Full
Feb 3
Last Quarter
Feb 10
New

Hourly Weather History & Observations

Time (MST) Temp. Windchill Dew Point Humidity Pressure Visibility Wind Dir Wind Speed Gust Speed Precip Events Conditions
12:15 AM 32.0 °F 25.6 °F 12.2 °F 44% 30.49 in 10.0 mi ESE 6.9 mph - N/A   Clear
12:35 AM 32.0 °F 27.5 °F 12.2 °F 44% 30.49 in 10.0 mi East 4.6 mph - N/A   Clear
1:15 AM 32.0 °F 26.4 °F 14.0 °F 48% 30.49 in 10.0 mi East 5.8 mph - N/A   Clear
1:35 AM 32.0 °F 28.7 °F 12.2 °F 44% 30.49 in 10.0 mi ENE 3.5 mph - N/A   Clear
1:55 AM 30.2 °F 24.3 °F 12.2 °F 47% 30.49 in 10.0 mi ESE 5.8 mph - N/A   Clear
2:15 AM 30.2 °F 25.4 °F 12.2 °F 47% 30.50 in 10.0 mi East 4.6 mph - N/A   Clear
2:35 AM 30.2 °F 22.6 °F 12.2 °F 47% 30.50 in 10.0 mi ESE 8.1 mph - N/A   Clear
2:55 AM 28.4 °F 20.4 °F 12.2 °F 51% 30.50 in 10.0 mi ESE 8.1 mph - N/A   Clear
3:15 AM 28.4 °F - 12.2 °F 51% 30.50 in 10.0 mi Calm Calm - N/A   Clear
3:35 AM 30.2 °F 22.6 °F 12.2 °F 47% 30.50 in 10.0 mi East 8.1 mph - N/A   Clear
3:55 AM 28.4 °F 21.2 °F 12.2 °F 51% 30.50 in 10.0 mi SE 6.9 mph - N/A   Clear
4:15 AM 30.2 °F 24.3 °F 12.2 °F 47% 30.49 in 10.0 mi SSW 5.8 mph - N/A   Clear
4:35 AM 26.6 °F - 12.2 °F 55% 30.50 in 10.0 mi Calm Calm - N/A   Clear
4:55 AM 26.6 °F - 12.2 °F 55% 30.49 in 10.0 mi Calm Calm - N/A   Clear
5:15 AM 26.6 °F 21.2 °F 12.2 °F 55% 30.50 in 10.0 mi SE 4.6 mph - N/A   Clear
5:35 AM 26.6 °F 20.0 °F 10.4 °F 51% 30.50 in 10.0 mi ENE 5.8 mph - N/A   Clear
5:55 AM 26.6 °F 21.2 °F 12.2 °F 55% 30.50 in 10.0 mi ESE 4.6 mph - N/A   Clear
6:15 AM 26.6 °F 18.2 °F 12.2 °F 55% 30.50 in 10.0 mi ESE 8.1 mph - N/A   Clear
6:35 AM 28.4 °F 24.6 °F 12.2 °F 51% 30.50 in 10.0 mi ESE 3.5 mph - N/A   Clear
6:55 AM 26.6 °F 22.6 °F 10.4 °F 51% 30.51 in 10.0 mi SSW 3.5 mph - N/A   Clear
7:15 AM 26.6 °F 22.6 °F 12.2 °F 55% 30.52 in 10.0 mi South 3.5 mph - N/A   Clear
7:55 AM 24.8 °F 19.1 °F 10.4 °F 54% 30.53 in 10.0 mi South 4.6 mph - N/A   Clear
8:15 AM 23.0 °F - 10.4 °F 59% 30.53 in 10.0 mi Calm Calm - N/A   Clear
8:35 AM 24.8 °F 20.5 °F 12.2 °F 59% 30.53 in 10.0 mi ESE 3.5 mph - N/A   Clear
8:55 AM 28.4 °F 22.2 °F 14.0 °F 55% 30.55 in 10.0 mi ESE 5.8 mph - N/A   Clear
9:15 AM 30.2 °F - 14.0 °F 51% 30.55 in 10.0 mi Calm Calm - N/A   Clear
9:35 AM 30.2 °F - 14.0 °F 51% 30.55 in 10.0 mi Calm Calm - N/A   Clear
9:55 AM 33.8 °F 29.6 °F 15.8 °F 48% 30.56 in 10.0 mi SSE 4.6 mph - N/A   Clear
10:15 AM 35.6 °F - 15.8 °F 44% 30.55 in 10.0 mi Calm Calm - N/A   Clear
10:35 AM 33.8 °F - 15.8 °F 48% 30.55 in 10.0 mi Calm Calm - N/A   Clear
10:55 AM 35.6 °F - 15.8 °F 44% 30.54 in 10.0 mi Calm Calm - N/A   Clear
11:15 AM 35.6 °F - 15.8 °F 44% 30.53 in 10.0 mi Calm Calm - N/A   Clear
11:35 AM 39.2 °F - 15.8 °F 39% 30.52 in 10.0 mi Calm Calm - N/A   Clear
11:55 AM 39.2 °F - 15.8 °F 39% 30.50 in 10.0 mi Calm Calm - N/A   Clear
12:15 PM 41.0 °F 39.0 °F 15.8 °F 36% 30.48 in 10.0 mi WSW 3.5 mph - N/A   Clear
12:35 PM 42.8 °F - 15.8 °F 34% 30.47 in 10.0 mi Calm Calm - N/A   Clear
12:55 PM 44.6 °F - 15.8 °F 31% 30.46 in 10.0 mi Calm Calm - N/A   Clear
1:15 PM 44.6 °F 43.1 °F 15.8 °F 31% 30.44 in 10.0 mi West 3.5 mph - N/A   Clear
1:35 PM 46.4 °F - 17.6 °F 32% 30.43 in 10.0 mi Calm Calm - N/A   Clear
1:55 PM 46.4 °F 44.3 °F 15.8 °F 29% 30.41 in 10.0 mi WSW 4.6 mph - N/A   Clear
2:15 PM 48.2 °F - 15.8 °F 27% 30.40 in 10.0 mi Calm Calm - N/A   Clear
2:35 PM 48.2 °F - 15.8 °F 27% 30.40 in 10.0 mi Calm Calm - N/A   Clear
2:55 PM 48.2 °F - 15.8 °F 27% 30.39 in 10.0 mi Calm Calm - N/A   Clear
3:15 PM 51.8 °F - 17.6 °F 26% 30.38 in 10.0 mi Calm Calm - N/A   Clear
3:35 PM 50.0 °F - 15.8 °F 26% 30.38 in 10.0 mi West 3.5 mph - N/A   Clear
3:55 PM 51.8 °F - 17.6 °F 26% 30.38 in 10.0 mi Calm Calm - N/A   Clear
4:15 PM 51.8 °F - 15.8 °F 24% 30.38 in 10.0 mi Calm Calm - N/A   Clear
4:35 PM 51.8 °F - 17.6 °F 26% 30.38 in 10.0 mi Calm Calm - N/A   Clear
4:55 PM 51.8 °F - 15.8 °F 24% 30.39 in 10.0 mi Calm Calm - N/A   Clear
5:15 PM 50.0 °F - 15.8 °F 26% 30.39 in 10.0 mi Calm Calm - N/A   Clear
5:35 PM 48.2 °F - 15.8 °F 27% 30.39 in 10.0 mi Calm Calm - N/A   Clear
5:55 PM 48.2 °F - 15.8 °F 27% 30.39 in 10.0 mi Calm Calm - N/A   Clear
6:15 PM 46.4 °F 42.9 °F 14.0 °F 27% 30.40 in 10.0 mi ENE 6.9 mph - N/A   Clear
6:55 PM 42.8 °F 36.6 °F 14.0 °F 31% 30.41 in 10.0 mi NE 11.5 mph - N/A   Clear
7:15 PM 42.8 °F 38.0 °F 12.2 °F 29% 30.42 in 10.0 mi NE 8.1 mph - N/A   Clear
7:55 PM 42.8 °F 39.3 °F 12.2 °F 29% 30.42 in 10.0 mi NNW 5.8 mph - N/A   Clear
8:15 PM 39.2 °F 35.0 °F 12.2 °F 33% 30.43 in 10.0 mi North 5.8 mph - N/A   Clear
8:35 PM 39.2 °F 33.0 °F 12.2 °F 33% 30.43 in 10.0 mi NNE 9.2 mph - N/A   Clear
8:55 PM 39.2 °F 33.6 °F 12.2 °F 33% 30.43 in 10.0 mi North 8.1 mph - N/A   Clear
9:15 PM 39.2 °F 35.0 °F 12.2 °F 33% 30.43 in 10.0 mi NE 5.8 mph - N/A   Clear
9:35 PM 37.4 °F 32.8 °F 12.2 °F 36% 30.44 in 10.0 mi SE 5.8 mph - N/A   Clear
9:55 PM 35.6 °F 31.7 °F 12.2 °F 38% 30.44 in 10.0 mi SE 4.6 mph - N/A   Clear
10:15 PM 37.4 °F - 12.2 °F 36% 30.44 in 10.0 mi Calm Calm - N/A   Clear
10:35 PM 33.8 °F - 10.4 °F 38% 30.43 in 10.0 mi Calm Calm - N/A   Clear
10:55 PM 35.6 °F - 12.2 °F 38% 30.43 in 10.0 mi Calm Calm - N/A   Clear
11:15 PM 35.6 °F - 12.2 °F 38% 30.43 in 10.0 mi Calm Calm - N/A   Clear
11:35 PM 33.8 °F - 10.4 °F 38% 30.43 in 10.0 mi Calm Calm - N/A   Clear
11:55 PM 32.0 °F 28.7 °F 10.4 °F 41% 30.43 in 10.0 mi South 3.5 mph - N/A   Clear